Weather History for KLNK - November, 2012

Change the Weather History Date:

Thursday, November 1, 2012

  Actual Average Record
Temperature  
Mean Temperature 47 °F 47 °F  
Max Temperature 59 °F 59 °F 80 °F (1990)
Min Temperature 34 °F 35 °F 16 °F (1911)
Degree Days  
Heating Degree Days 18 19  
Month to date heating degree days 18 19  
Since 1 July heating degree days 600 498  
Cooling Degree Days 0 0  
Month to date cooling degree days 0 0  
Year to date cooling degree days 1491 1173  
Moisture  
Dew Point 38 °F    
Average Humidity 72    
Maximum Humidity 92    
Minimum Humidity 51    
Precipitation  
Precipitation 0.00 in 0.06 in 1.34 in (1981)
Month to date precipitation 0.00 0.06  
Year to date precipitation 17.49 26.63  
Snow  
Snow 0.00 in 0.00 in - ()
Month to date snowfall 0.0 0.0  
Since 1 July snowfall 0.0 0.7  
Snow Depth 0.00 in    
Sea Level Pressure  
Sea Level Pressure 29.99 in    
Wind  
Wind Speed 7 mph (NNE)    
Max Wind Speed 20 mph    
Max Gust Speed 23 mph    
Visibility 6 miles    
Events      
T = Trace of Precipitation, MM = Missing Value Source: NWS Daily Summary

Daily Weather History Graph

Daily Weather History Graph

Search for Another Location

Airport or City:

Trip Planner

Search our weather history database for the weather conditions in past years. The results will help you decide how hot, cold, wet, or windy it might be!

Date:

Astronomy

Nov. 01, 2012 Rise Set
Actual Time 7:58 AM CDT 6:22 PM CDT
Civil Twilight 7:29 AM CDT 6:50 PM CDT
Nautical Twilight 6:57 AM CDT 7:23 PM CDT
Astronomical Twilight 6:25 AM CDT 7:55 PM CDT
Moon 8:19 PM CDT (11/1) 10:32 AM CDT (11/1)
Length of Visible Light 11h 21m
Length of Day
10h 24m
Waning Gibbous, 93% of the Moon is Illuminated
Nov 1
Waning Gibbous
Nov 6
Last Quarter
Nov 13
New
Nov 20
First Quarter
Nov 28
Full

Hourly Weather History & Observations

Time (CDT) Temp. Windchill Dew Point Humidity Pressure Visibility Wind Dir Wind Speed Gust Speed Precip Events Conditions
12:54 AM 45.0 °F - 37.0 °F 74% 30.00 in 8.0 mi Calm Calm - N/A   Overcast
1:54 AM 46.0 °F - 37.9 °F 73% 29.99 in 8.0 mi Calm Calm - N/A   Overcast
2:54 AM 45.0 °F - 39.9 °F 82% 29.98 in 8.0 mi Calm Calm - N/A   Overcast
3:54 AM 41.0 °F 37.1 °F 37.4 °F 87% 29.97 in 8.0 mi South 5.8 mph - N/A   Clear
4:54 AM 43.0 °F 41.3 °F 37.0 °F 80% 29.96 in 9.0 mi South 3.5 mph - N/A   Clear
5:54 AM 43.0 °F 41.3 °F 37.9 °F 82% 29.96 in 10.0 mi SSW 3.5 mph - N/A   Clear
6:54 AM 42.8 °F - 35.6 °F 76% 29.95 in 10.0 mi Calm Calm - N/A   Clear
7:54 AM 39.2 °F - 35.6 °F 87% 29.96 in 9.0 mi Calm Calm - N/A   Clear
8:54 AM 44.1 °F 42.5 °F 37.9 °F 79% 29.99 in 8.0 mi NW 3.5 mph - N/A   Clear
9:54 AM 48.9 °F - 39.0 °F 69% 30.01 in 6.0 mi NNW 15.0 mph - N/A   Haze
10:54 AM 54.0 °F - 39.0 °F 57% 30.03 in 6.0 mi North 17.3 mph - N/A   Haze
11:54 AM 55.9 °F - 39.0 °F 53% 30.03 in 6.0 mi North 16.1 mph - N/A   Haze
12:54 PM 57.2 °F - 39.2 °F 51% 30.02 in 6.0 mi North 12.7 mph - N/A   Haze
1:54 PM 59.0 °F - 41.0 °F 51% 30.00 in 6.0 mi NNE 13.8 mph - N/A   Haze
2:54 PM 57.2 °F - 41.0 °F 55% 29.99 in 6.0 mi North 11.5 mph - N/A   Haze
3:54 PM 57.0 °F - 41.0 °F 55% 29.99 in 5.0 mi NNE 9.2 mph - N/A   Haze
4:54 PM 53.1 °F - 41.0 °F 64% 29.99 in 5.0 mi NNE 8.1 mph - N/A   Haze
5:54 PM 50.0 °F - 41.0 °F 71% 30.00 in 5.0 mi NNE 9.2 mph - N/A   Haze
6:54 PM 45.0 °F 40.6 °F 39.0 °F 80% 30.01 in 5.0 mi North 8.1 mph - N/A   Haze
7:54 PM 42.1 °F 39.2 °F 37.9 °F 85% 30.01 in 5.0 mi NNE 4.6 mph - N/A   Clear
8:54 PM 39.0 °F 35.7 °F 37.0 °F 93% 30.01 in 5.0 mi NNE 4.6 mph - N/A   Clear
9:54 PM 37.0 °F 32.4 °F 35.1 °F 93% 30.01 in 4.0 mi NNE 5.8 mph - N/A   Clear
10:54 PM 37.9 °F 35.5 °F 36.0 °F 93% 30.01 in 4.0 mi North 3.5 mph - N/A   Clear
11:54 PM 37.0 °F 34.5 °F 36.0 °F 96% 30.00 in 3.0 mi NNE 3.5 mph - N/A   Clear